Find Starlink 32495

NORAD ID: 62052 Int'l Des: 2024-216 Owner: SPXS Country: US Constellation: starlink operational
LEOCIRCULAR

現在のビュー

3D地球を読み込み中...

About Starlink 32495

Starlink 32495 (NORAD 62052) is a starlink constellation satellite (v2 mini) launched Nov 21, 2024 by SPXS of US. It operates in LEO, CIRCULAR orbit with a mass of 730.00 kg.

Starlink 32495について

説明を読み込み中...

次回通過

Passes for default location (London). Set your location on the main map for personalized predictions.

高度履歴

Loading altitude history...

軌道要素

1 62052C 24216W 26173.83729167 -.00185140 00000+0 -67043-2 0 1738
2 62052 43.0021 29.2233 0001503 269.7684 280.8165 15.27677052 12
Epoch: Jun 22, 2026 • Age: 17 hours

現在のステータス

高度 486.4 km
速度 7.62 km/s
衛星直下点 -15.82°S, 109.81°E
打ち上げ日 Nov 21, 2024
運用期間 1.5 years
タイプ internet

技術仕様

分類 Payload
質量 730.00 kg
乾燥質量 700.00 kg
総質量 730.00 kg
長さ 0.30 m
直径 4.10 m
スパン 29.00 m
形状 Box + pan
製造者 SPXS
バスタイプ Starlink V2M
フェーズステータス In Orbit
所有者/国 SPXS/US

Most Searched